Location: Drocourt
(49.0571°N, 1.7669°E)
Time: 00:26:57
(UTC+00:00)

NOAA 6 - Pass Details

Date: 09 February 2023
Orbit: 770 x 786 km, 98.7° (Epoch: 01 April)

Event Time Altitude Azimuth Distance (km) Brightness Sun altitude
Rises 17:47:23 0° 169° (S) 3,254 7.3 -7.8°
Reaches altitude 10° 17:49:41 10° 172° (S) 2,333 6.6 -8.2°
Maximum altitude 17:54:50 72° 257° (WSW) 828 4.4 -9.0°
Drops below altitude 10° 18:00:02 10° 342° (NNW) 2,358 6.6 -9.8°
Sets 18:02:23 0° 344° (NNW) 3,292 7.4 -10.2°
